KUIPER-00056

Last updated on Thu Jul 03 2025 00:02:08 GMT+0000 (Coordinated Universal Time)

1 64516U 25134S 25183.58335648 .00003890 00000+0 12130-3 0 9997 2 64516 51.8748 286.9306 0004150 133.6684 340.1319 15.35668455 2058
UTC large
Height (km)
Speed (km/s)
/
Latitude / Longitude
Inclination (degrees)
Orbital Period (minutes)
Azimuth
Elevation
Range (km)
Doppler Factor

Next 0 passes for location: London (51.5072 / 0.1276)

Sorry there are no passes over London.